Location: Passau
(48.5830°N, 13.4830°E)
Time: 20:19:41
(UTC+02:00)

Vanguard 3 - Pass Details

Date: 22 May 2024
Orbit: 509 x 3231 km, 33.3° (Epoch: 15 June)

Event Time Altitude Azimuth Distance (km) Brightness Sun altitude
Rises 19:08:06 0° 212° (SSW) 3,975 10.9 14.4°
Reaches altitude 10° 19:11:01 10° 198° (SSW) 3,357 10.4 14.0°
Maximum altitude 19:17:54 25° 147° (SSE) 3,095 9.8 12.9°
Drops below altitude 10° 19:28:02 10° 100° (E) 5,115 10.6 11.3°
Sets 19:33:52 0° 91° (E) 6,562 11.2 10.4°
